Location: Township of Marena
(38.1747°N, 99.6798°W)
Time: 12:22:16
(UTC+00:00)

SKYMED 2 - Pass Details

Date: 26 October 2020
Orbit: 621 x 623 km, 97.9° (Epoch: 25 November)

Event Time Altitude Azimuth Distance (km) Brightness Sun altitude
Rises 11:38:14 0° 157° (SSE) 2,889 7.4 -16.5°
Reaches altitude 10° 11:40:26 10° 154° (SSE) 1,987 6.5 -16.0°
Maximum altitude 11:44:41 60° 75° (ENE) 714 4.1 -15.2°
Drops below altitude 10° 11:48:58 10° 355° (N) 2,001 6.1 -14.4°
Sets 11:51:11 0° 352° (N) 2,911 6.9 -13.9°
